CW8081 Weather Reports


time (UTC)temp
C
wind
direction
speed
KPH
gust
KPH
rain 1hr
cm
rain 24hr
cm
rain mn
cm
humidity
%
barometer
mb
20260906071605 28 1 0.0 0.0 0.00 0.00 0.00 52 1016.8
20260906071106 27 350 0.0 0.0 0.00 0.00 0.00 55 1016.8
20260906070605 27 358 0.0 0.0 0.00 0.00 0.00 57 1016.8
20260906064605 25 0 0.0 0.0 0.00 0.00 0.00 61 1016.7
20260906064106 25 343 0.0 0.0 0.00 0.00 0.00 63 1016.7
20260906063605 25 357 0.0 0.0 0.00 0.00 0.00 64 1016.5
20260906063105 25 315 0.0 0.0 0.00 0.00 0.00 65 1016.5
20260906061605 23 0 0.0 0.0 0.00 0.00 0.00 69 1016.5
20260906061106 23 0 0.0 0.0 0.00 0.00 0.00 70 1016.5
20260906060106 23 0 0.0 0.0 0.00 0.00 0.00 72 1016.5
20260906053605 22 0 0.0 0.0 0.00 0.00 0.00 73 1016.1
20260906051605 21 0 0.0 0.0 0.00 0.00 0.00 71 1016.1
20260906050605 21 0 0.0 0.0 0.00 0.00 0.00 71 1016.1
20260906043105 21 0 0.0 0.0 0.00 0.00 0.00 69 1015.8
20260906041105 21 0 0.0 0.0 0.00 0.00 0.00 68 1015.7
20260906040605 21 0 0.0 0.0 0.00 0.00 0.00 68 1015.5
20260906034105 21 0 0.0 0.0 0.00 0.00 0.00 67 1015.3
20260906033105 21 0 0.0 0.0 0.00 0.00 0.00 67 1015.3
20260906031105 21 0 0.0 0.0 0.00 0.00 0.00 66 1015.0
20260906030106 21 0 0.0 0.0 0.00 0.00 0.00 65 1015.0
20260906024605 22 0 0.0 0.0 0.00 0.00 0.00 62 1015.0
20260906023605 22 0 0.0 0.0 0.00 0.00 0.00 60 1015.0
20260906023105 22 0 0.0 0.0 0.00 0.00 0.00 60 1015.0
20260906021605 22 0 0.0 0.0 0.00 0.00 0.00 60 1015.0
20260906021105 22 0 0.0 0.0 0.00 0.00 0.00 59 1015.0
20260906020106 22 0 0.0 0.0 0.00 0.00 0.00 59 1015.0
20260906014105 22 0 0.0 0.0 0.00 0.00 0.00 61 1015.0
20260906013605 22 0 0.0 0.0 0.00 0.00 0.00 63 1015.0
20260906013105 22 0 0.0 0.0 0.00 0.00 0.00 63 1015.0
20260906011605 22 0 0.0 0.0 0.00 0.00 0.00 62 1015.0
20260906011105 22 0 0.0 0.0 0.00 0.00 0.00 61 1014.9
20260906004605 22 0 0.0 0.0 0.00 0.00 0.00 61 1014.9
20260906003605 22 0 0.0 0.0 0.00 0.00 0.00 60 1014.9
20260906003105 22 0 0.0 0.0 0.00 0.00 0.00 60 1014.9
20260906000106 23 0 0.0 0.0 0.00 0.00 0.00 59 1014.9
20260905234605 22 0 0.0 0.0 0.00 0.00 0.00 59 1015.3
20260905233605 22 0 0.0 0.0 0.00 0.00 0.00 60 1015.3
20260905231104 22 0 0.0 0.0 0.00 0.00 0.00 60 1015.3
20260905230106 22 0 0.0 0.0 0.00 0.00 0.00 60 1015.3
20260905224605 23 0 0.0 0.0 0.00 0.00 0.00 60 1015.3
20260905223606 23 0 0.0 0.0 0.00 0.00 0.00 59 1015.3
20260905223105 23 0 0.0 0.0 0.00 0.00 0.00 59 1015.3
20260905221105 23 0 0.0 0.0 0.00 0.00 0.00 57 1015.3
20260905213105 24 0 0.0 0.0 0.00 0.00 0.00 56 1015.4
20260905211112 24 0 0.0 0.0 0.00 0.00 0.00 55 1015.5
20260905210105 25 0 0.0 0.0 0.00 0.00 0.00 56 1015.7
20260905204105 25 0 0.0 0.0 0.00 0.00 0.00 54 1015.7
20260905203105 25 0 0.0 0.0 0.00 0.00 0.00 53 1015.6
20260905201605 25 0 0.0 0.0 0.00 0.00 0.00 53 1015.6
20260905201104 26 0 0.0 0.0 0.00 0.00 0.00 52 1015.6
20260905200605 26 0 0.0 0.0 0.00 0.00 0.00 52 1015.6
20260905194605 26 0 0.0 0.0 0.00 0.00 0.00 53 1015.6
20260905194104 26 0 0.0 0.0 0.00 0.00 0.00 53 1015.6
20260905190105 27 0 0.0 0.0 0.00 0.00 0.00 51 1015.6
20260905184105 27 0 0.0 0.0 0.00 0.00 0.00 49 1015.4
20260905183605 27 0 0.0 0.0 0.00 0.00 0.00 49 1015.4
20260905180604 28 0 0.0 0.0 0.00 0.00 0.00 47 1015.0
20260905174105 28 0 0.0 0.0 0.00 0.00 0.00 47 1015.0
20260905173605 28 0 0.0 0.0 0.00 0.00 0.00 46 1014.6
20260905171105 30 0 0.0 0.0 0.00 0.00 0.00 47 1014.6
20260905170605 30 0 0.0 0.0 0.00 0.00 0.00 47 1014.6
20260905170106 30 0 0.0 0.0 0.00 0.00 0.00 47 1014.6
20260905164605 30 0 0.0 0.0 0.00 0.00 0.00 45 1014.6
20260905164105 30 0 0.0 0.0 0.00 0.00 0.00 44 1014.6
20260905163605 30 0 0.0 0.0 0.00 0.00 0.00 43 1014.6
20260905163105 31 0 0.0 0.0 0.00 0.00 0.00 44 1014.6
20260905160605 31 0 0.0 0.0 0.00 0.00 0.00 47 1014.6
20260905160106 31 0 0.0 0.0 0.00 0.00 0.00 45 1014.6
20260905153105 31 0 0.0 0.0 0.00 0.00 0.00 51 1014.6
20260905151605 31 359 0.0 0.0 0.00 0.00 0.00 50 1014.5
20260905150605 31 0 0.0 0.0 0.00 0.00 0.00 49 1014.5
20260905144105 32 348 0.0 0.0 0.00 0.00 0.00 49 1014.5
20260905141605 32 0 0.0 0.0 0.00 0.00 0.00 51 1015.2
20260905134605 32 342 0.0 0.0 0.00 0.00 0.00 46 1015.2
20260905134105 32 0 0.0 0.0 0.00 0.00 0.00 44 1015.2
20260905133605 32 0 0.0 0.0 0.00 0.00 0.00 42 1015.2
20260905133104 32 352 0.0 0.0 0.00 0.00 0.00 44 1015.2
20260905130604 32 0 0.0 0.0 0.00 0.00 0.00 41 1015.4
20260905130106 32 356 0.0 0.0 0.00 0.00 0.00 42 1015.4
20260905124105 32 355 0.0 0.0 0.00 0.00 0.00 43 1015.7
20260905123605 32 344 0.0 0.0 0.00 0.00 0.00 43 1015.7
20260905123105 32 330 0.0 0.0 0.00 0.00 0.00 40 1015.7
20260905120106 31 0 0.0 0.0 0.00 0.00 0.00 44 1016.3
20260905114605 31 311 0.0 0.0 0.00 0.00 0.00 45 1016.3
20260905110605 31 358 0.0 0.0 0.00 0.00 0.00 46 1016.5
20260905104605 31 337 0.0 0.0 0.00 0.00 0.00 44 1016.7
20260905104104 31 311 0.0 0.0 0.00 0.00 0.00 44 1016.7
20260905103604 31 0 0.0 0.0 0.00 0.00 0.00 45 1016.7
20260905101604 31 339 0.0 0.0 0.00 0.00 0.00 47 1017.1
20260905101105 31 356 0.0 0.0 0.00 0.00 0.00 51 1017.1
20260905100106 31 303 0.0 0.0 0.00 0.76 0.00 48 1017.1
20260905091104 30 276 0.0 0.0 0.00 0.99 0.00 54 1017.5
20260905090605 30 266 0.0 0.0 0.00 1.02 0.00 54 1017.5
20260905083105 29 312 0.0 0.0 0.00 1.02 0.00 59 1017.7
20260905074605 27 310 0.0 0.0 0.00 5.13 0.00 64 1017.6